When you browse on this site, cookies collect data to enhance your experience and personalize the content and advertising you see.
Visit our Privacy Policy to learn more. By continuing to use the site, you agree to this use of cookies and data.
  • In Germany
  • List of Countries
  • For 7 days
  • Water Temperature
  • Satellite Maps
  • Weather Map
  • Weather Widgets
  • user-avatar
    Login

    Hourly Weather Rhodes

    Today, 16 December, Sunday

    Time Temperature Precipitation Wind Pressure Humidity
    00:00 +16°C° 0.7 mm 9 mps 734 mmHg 75%
    01:00 +16°C° 0.7 mm 9 mps 734 mmHg 75%
    02:00 +16°C° 0.7 mm 9 mps 733 mmHg 75%
    03:00 +16°C° 1 mm 9 mps 733 mmHg 75%
    04:00 +16°C° 1 mm 9 mps 733 mmHg 75%
    05:00 +15°C° 1 mm 9 mps 732 mmHg 75%
    06:00 +15°C° 1.2 mm 9 mps 732 mmHg 75%
    07:00 +15°C° 1.2 mm 9 mps 732 mmHg 75%
    08:00 +15°C° 1.2 mm 9 mps 732 mmHg 75%
    09:00 +15°C° 1.4 mm 9 mps 732 mmHg 75%
    10:00 +15°C° 1.4 mm 9 mps 732 mmHg 74%
    11:00 +16°C° 1.4 mm 9 mps 731 mmHg 74%
    12:00 +16°C° 1.1 mm 9 mps 731 mmHg 73%
    13:00 +16°C° 1.1 mm 8 mps 731 mmHg 72%
    14:00 +16°C° 1.1 mm 8 mps 730 mmHg 72%
    15:00 +16°C° 1.2 mm 7 mps 730 mmHg 71%
    16:00 +16°C° 1.2 mm 7 mps 730 mmHg 70%
    17:00 +15°C° 1.2 mm 7 mps 730 mmHg 69%
    18:00 +15°C° 1.1 mm 6 mps 731 mmHg 69%
    19:00 +15°C° 1.1 mm 5 mps 731 mmHg 69%
    20:00 +15°C° 1.1 mm 5 mps 731 mmHg 68%
    21:00 +15°C° 0.6 mm 4 mps 731 mmHg 68%
    22:00 +15°C° 0.6 mm 4 mps 731 mmHg 67%
    23:00 +16°C° 0.6 mm 3 mps 731 mmHg 67%

    Tomorrow, 17 December, Monday

    Time Temperature Precipitation Wind Pressure Humidity
    00:00 +16°C° 0.5 mm 3 mps 731 mmHg 67%
    01:00 +16°C° 0.5 mm 3 mps 731 mmHg 68%
    02:00 +16°C° 0.5 mm 3 mps 731 mmHg 68%
    03:00 +14°C° 0.5 mm 3 mps 731 mmHg 69%
    04:00 +14°C° 0.5 mm 3 mps 731 mmHg 69%
    05:00 +14°C° 0.5 mm 3 mps 731 mmHg 70%
    06:00 +14°C° 0.6 mm 3 mps 731 mmHg 70%
    07:00 +14°C° 0.6 mm 3 mps 731 mmHg 70%
    08:00 +14°C° 0.6 mm 3 mps 732 mmHg 70%
    09:00 +14°C° 0.1 mm 3 mps 732 mmHg 69%
    10:00 +14°C° 0.1 mm 3 mps 732 mmHg 68%
    11:00 +15°C° 0.1 mm 2 mps 732 mmHg 67%
    12:00 +16°C° 0 mm 3 mps 732 mmHg 68%
    13:00 +15°C° 0 mm 4 mps 732 mmHg 68%
    14:00 +15°C° 0 mm 4 mps 732 mmHg 68%
    15:00 +15°C° 0 mm 5 mps 732 mmHg 69%
    16:00 +15°C° 0 mm 5 mps 732 mmHg 70%
    17:00 +14°C° 0 mm 5 mps 732 mmHg 71%
    18:00 +14°C° 0 mm 5 mps 733 mmHg 71%
    19:00 +14°C° 0 mm 5 mps 733 mmHg 71%
    20:00 +14°C° 0 mm 5 mps 734 mmHg 71%
    21:00 +14°C° 0 mm 5 mps 734 mmHg 70%
    22:00 +14°C° 0 mm 5 mps 734 mmHg 69%
    23:00 +14°C° 0 mm 4 mps 734 mmHg 68%

    Day after tomorrow, 18 December, Tuesday

    Time Temperature Precipitation Wind Pressure Humidity
    00:00 +14°C° 0 mm 4 mps 734 mmHg 67%
    01:00 +14°C° 0 mm 3 mps 734 mmHg 66%
    02:00 +14°C° 0 mm 3 mps 734 mmHg 64%
    03:00 +14°C° 0 mm 3 mps 733 mmHg 65%
    04:00 +14°C° 0 mm 3 mps 733 mmHg 66%
    05:00 +14°C° 0 mm 4 mps 733 mmHg 68%
    06:00 +14°C° 1 mm 5 mps 733 mmHg 71%
    07:00 +14°C° 1 mm 6 mps 733 mmHg 73%
    08:00 +14°C° 1 mm 7 mps 732 mmHg 76%
    09:00 +13°C° 2.6 mm 8 mps 732 mmHg 77%
    10:00 +15°C° 2.6 mm 8 mps 732 mmHg 78%
    11:00 +15°C° 2.6 mm 9 mps 732 mmHg 78%
    12:00 +15°C° 1.7 mm 9 mps 731 mmHg 76%
    13:00 +15°C° 1.7 mm 8 mps 731 mmHg 74%
    14:00 +15°C° 1.7 mm 7 mps 730 mmHg 72%
    15:00 +15°C° 1.6 mm 7 mps 730 mmHg 71%
    16:00 +14°C° 1.6 mm 7 mps 730 mmHg 71%
    17:00 +14°C° 1.6 mm 7 mps 730 mmHg 70%
    18:00 +14°C° 1.6 mm 6 mps 730 mmHg 70%
    19:00 +14°C° 1.6 mm 6 mps 731 mmHg 69%
    20:00 +14°C° 1.6 mm 5 mps 731 mmHg 69%
    21:00 +13°C° 1.1 mm 5 mps 731 mmHg 69%
    22:00 +13°C° 1.1 mm 5 mps 731 mmHg 68%
    23:00 +13°C° 1.1 mm 5 mps 731 mmHg 68%

    19 December, Wednesday

    Time Temperature Precipitation Wind Pressure Humidity
    00:00 +13°C° 0.6 mm 5 mps 731 mmHg 69%
    01:00 +13°C° 0.6 mm 5 mps 731 mmHg 69%
    02:00 +13°C° 0.6 mm 4 mps 731 mmHg 69%
    03:00 +13°C° 0.1 mm 4 mps 731 mmHg 69%
    04:00 +13°C° 0.1 mm 4 mps 731 mmHg 70%
    05:00 +13°C° 0.1 mm 3 mps 731 mmHg 70%
    06:00 +13°C° 0.1 mm 3 mps 732 mmHg 70%
    07:00 +13°C° 0.1 mm 3 mps 732 mmHg 70%
    08:00 +13°C° 0.1 mm 4 mps 733 mmHg 69%
    09:00 +13°C° 0 mm 4 mps 733 mmHg 70%
    10:00 +13°C° 0 mm 5 mps 733 mmHg 70%
    11:00 +13°C° 0 mm 5 mps 733 mmHg 70%
    12:00 +13°C° 0 mm 6 mps 733 mmHg 70%
    13:00 +12°C° 0 mm 7 mps 733 mmHg 71%
    14:00 +12°C° 0 mm 8 mps 733 mmHg 71%
    15:00 +12°C° 0 mm 8 mps 734 mmHg 71%
    16:00 +12°C° 0 mm 9 mps 734 mmHg 71%
    17:00 +12°C° 0 mm 9 mps 734 mmHg 70%
    18:00 +12°C° 0 mm 9 mps 735 mmHg 70%
    19:00 +12°C° 0 mm 9 mps 735 mmHg 69%
    20:00 +12°C° 0 mm 9 mps 736 mmHg 68%
    21:00 +12°C° 0 mm 9 mps 736 mmHg 69%
    22:00 +12°C° 0 mm 9 mps 736 mmHg 69%
    23:00 +12°C° 0 mm 9 mps 736 mmHg 69%

    20 December, Thursday

    Time Temperature Precipitation Wind Pressure Humidity
    00:00 +11°C° 0 mm 9 mps 736 mmHg 69%
    01:00 +11°C° 0 mm 10 mps 737 mmHg 69%
    02:00 +11°C° 0 mm 10 mps 737 mmHg 69%
    03:00 +11°C° 0 mm 9 mps 737 mmHg 69%
    04:00 +11°C° 0 mm 9 mps 737 mmHg 69%
    05:00 +11°C° 0 mm 9 mps 737 mmHg 68%
    06:00 +11°C° 0 mm 9 mps 737 mmHg 68%
    07:00 +11°C° 0 mm 9 mps 738 mmHg 67%
    08:00 +11°C° 0 mm 9 mps 738 mmHg 67%
    09:00 +11°C° 0 mm 9 mps 738 mmHg 66%
    10:00 +11°C° 0 mm 9 mps 738 mmHg 65%
    11:00 +11°C° 0 mm 8 mps 738 mmHg 64%
    12:00 +11°C° 0 mm 9 mps 738 mmHg 64%
    13:00 +11°C° 0 mm 9 mps 738 mmHg 63%
    14:00 +11°C° 0 mm 9 mps 738 mmHg 63%
    15:00 +11°C° 0 mm 9 mps 738 mmHg 62%
    16:00 +11°C° 0 mm 9 mps 738 mmHg 62%
    17:00 +11°C° 0 mm 9 mps 738 mmHg 61%
    18:00 +11°C° 0 mm 8 mps 738 mmHg 60%
    19:00 +11°C° 0 mm 8 mps 739 mmHg 60%
    20:00 +12°C° 0 mm 7 mps 739 mmHg 59%
    21:00 +11°C° 0 mm 7 mps 739 mmHg 58%
    22:00 +11°C° 0 mm 7 mps 739 mmHg 58%
    23:00 +11°C° 0 mm 6 mps 739 mmHg 57%

    21 December, Friday

    Time Temperature Precipitation Wind Pressure Humidity
    00:00 +11°C° 0 mm 6 mps 739 mmHg 57%
    01:00 +11°C° 0 mm 6 mps 739 mmHg 57%
    02:00 +11°C° 0 mm 6 mps 739 mmHg 57%
    03:00 +12°C° 0 mm 5 mps 739 mmHg 56%
    04:00 +12°C° 0 mm 5 mps 739 mmHg 56%
    05:00 +12°C° 0 mm 5 mps 739 mmHg 56%
    06:00 +12°C° 0 mm 5 mps 739 mmHg 55%
    07:00 +12°C° 0 mm 4 mps 739 mmHg 55%
    08:00 +12°C° 0 mm 4 mps 739 mmHg 54%
    09:00 +12°C° 0 mm 4 mps 739 mmHg 54%
    10:00 +12°C° 0 mm 3 mps 739 mmHg 53%
    11:00 +12°C° 0 mm 3 mps 739 mmHg 52%
    12:00 +12°C° 0 mm 3 mps 739 mmHg 52%
    13:00 +12°C° 0 mm 3 mps 739 mmHg 52%
    14:00 +12°C° 0 mm 3 mps 738 mmHg 52%
    15:00 +12°C° 0 mm 3 mps 738 mmHg 53%
    16:00 +12°C° 0 mm 3 mps 738 mmHg 53%
    17:00 +12°C° 0 mm 3 mps 738 mmHg 53%
    18:00 +12°C° 0 mm 3 mps 739 mmHg 54%
    19:00 +12°C° 0 mm 3 mps 739 mmHg 55%
    20:00 +13°C° 0 mm 2 mps 739 mmHg 55%
    21:00 +13°C° 0 mm 2 mps 739 mmHg 56%
    22:00 +13°C° 0 mm 2 mps 738 mmHg 56%
    23:00 +13°C° 0 mm 1 mps 738 mmHg 56%
    Show more